Weather History for Bucuresti / Imh, Romania

Change the Weather History Date:

Saturday, April 17, 2010

  Actual Average Record
Temperature  
Mean Temperature 53 °F -  
Max Temperature 66 °F 70 °F - ()
Min Temperature 40 °F 47 °F - ()
Degree Days  
Heating Degree Days 12    
Growing Degree Days 3 (Base 50)    
Moisture  
Dew Point 47 °F    
Average Humidity 72    
Maximum Humidity 100    
Minimum Humidity 26    
Precipitation  
Precipitation 0.00 in 0.08 in - ()
Sea Level Pressure  
Sea Level Pressure 30.01 in    
Wind  
Wind Speed 5 mph ()    
Max Wind Speed 13 mph    
Max Gust Speed -    
Visibility 5.0 miles    
Events Fog    
T = Trace of Precipitation, MM = Missing Value Source: Averaged Metar Reports

Daily Weather History Graph

Daily Weather History Graph

Search for Another Location

Airport:

Trip Planner

Search our weather history database for the weather conditions in past years. The results will help you decide how hot, cold, wet, or windy it might be!

Date:

Astronomy

Apr. 17, 2010 Rise Set
Actual Time 6:28 AM EEST 8:02 PM EEST
Civil Twilight 5:58 AM EEST 8:33 PM EEST
Nautical Twilight 5:21 AM EEST 9:10 PM EEST
Astronomical Twilight 4:41 AM EEST 9:50 PM EEST
Moon 7:38 AM EEST (4/17) 11:42 PM EEST (4/17)
Length of Visible Light 14h 34m
Length of Day
13h 33m
Waxing Crescent, 9% of the Moon is Illuminated
Apr 17
Waxing Crescent
Apr 21
First Quarter
Apr 28
Full
May 6
Last Quarter
May 14
New

Hourly Weather History & Observations

Time (EEST) Temp. Dew Point Humidity Pressure Visibility Wind Dir Wind Speed Gust Speed Precip Events Conditions
12:00 AM 53 °F 46 °F 70% 29.96 in 6 mi WSW 4.5 mph - -   Mostly Cloudy
12:00 AM 55.4 °F 51.8 °F 88% 29.95 in - West 8.1 mph - N/A   Clear
12:30 AM 53.6 °F 51.8 °F 94% 29.95 in - West 8.1 mph - N/A   Clear
1:00 AM 52 °F 47 °F 76% 29.98 in 6 mi WSW 4.5 mph - -   Mostly Cloudy
1:00 AM 53.6 °F 51.8 °F 94% 29.95 in - West 8.1 mph - N/A   Clear
1:30 AM 53.6 °F 51.8 °F 94% 29.95 in - West 6.9 mph - N/A   Clear
2:00 AM 50 °F 47 °F 87% 29.99 in 6 mi WSW 4.5 mph - -   Overcast
2:00 AM 53.6 °F 51.8 °F 94% 29.95 in - West 5.8 mph - N/A   Clear
2:30 AM 51.8 °F 51.8 °F 100% 29.95 in - WNW 3.5 mph - N/A   Clear
3:00 AM 49 °F 47 °F 92% 29.99 in 6 mi West 2.2 mph - -   Mostly Cloudy
4:00 AM 48 °F 47 °F 96% 29.98 in 6 mi SW 4.5 mph - -   Mostly Cloudy
4:00 AM 51.8 °F 50.0 °F 94% 29.95 in - West 5.8 mph - N/A   Clear
4:30 AM 50.0 °F 50.0 °F 100% 29.95 in 4.3 mi West 2.3 mph - N/A   Unknown
5:00 AM 44 °F 44 °F 98% 29.98 in 6 mi Calm Calm - -   Partly Cloudy
5:00 AM 50.0 °F 50.0 °F 100% 29.95 in 3.7 mi NW 2.3 mph - N/A   Unknown
5:30 AM 48.2 °F 48.2 °F 100% 29.95 in 3.1 mi Calm Calm - N/A Fog Fog
6:00 AM 41 °F 41 °F 100% 29.99 in 6 mi Calm Calm - -  
6:00 AM 48.2 °F 48.2 °F 100% 29.95 in 0.6 mi WSW 2.3 mph - N/A   Unknown
6:30 AM 48.2 °F 48.2 °F 100% 29.95 in 0.9 mi WNW 3.5 mph - N/A   Scattered Clouds
7:00 AM 43 °F 43 °F 100% 30.00 in 6 mi WSW 2.2 mph - -   Overcast
7:00 AM 50.0 °F 50.0 °F 100% 29.98 in 0.9 mi WNW 3.5 mph - N/A   Mostly Cloudy
7:30 AM 50.0 °F 50.0 °F 100% 29.98 in 0.5 mi NW 3.5 mph - N/A Fog Fog
8:00 AM 49 °F 49 °F 99% 30.00 in 0 mi WNW 2.2 mph - - Fog Partial Fog
8:00 AM 50.0 °F 50.0 °F 100% 29.98 in 0.5 mi Variable 2.3 mph - N/A Fog Fog
8:30 AM 51.8 °F 51.8 °F 100% 29.98 in 0.9 mi Variable 1.2 mph - N/A   Mostly Cloudy
9:00 AM 50 °F 50 °F 100% 30.01 in 1 mi NW 2.2 mph - -   Mist
9:00 AM 53.6 °F 53.6 °F 100% 29.98 in 3.1 mi Variable 2.3 mph - N/A   Mostly Cloudy
9:30 AM 55.4 °F 50.0 °F 82% 30.01 in 6.2 mi NNE 3.5 mph - N/A   Partly Cloudy
10:00 AM 57 °F 45 °F 55% 30.03 in 6 mi NNE 2.2 mph - -   Scattered Clouds
10:00 AM 59.0 °F 50.0 °F 72% 30.01 in - East 4.6 mph - N/A   Clear
10:30 AM 59.0 °F 51.8 °F 77% 30.01 in 6.2 mi East 6.9 mph - N/A   Partly Cloudy
11:00 AM 59 °F 41 °F 39% 30.04 in 6 mi East 6.7 mph - -   Scattered Clouds
11:00 AM 60.8 °F 50.0 °F 68% 30.01 in 6.2 mi SE 8.1 mph - N/A   Partly Cloudy
11:30 AM 62.6 °F 48.2 °F 59% 30.01 in 6.2 mi ESE 11.5 mph - N/A   Partly Cloudy
12:00 PM 60 °F 37 °F 30% 30.04 in 6 mi ESE 8.9 mph - -   Scattered Clouds
12:00 PM 62.6 °F 48.2 °F 59% 30.01 in 6.2 mi SSE 10.4 mph - N/A   Scattered Clouds
12:30 PM 64.4 °F 48.2 °F 56% 30.01 in 6.2 mi SSE 8.1 mph - N/A   Mostly Cloudy
1:00 PM 64 °F 38 °F 26% 30.04 in 6 mi East 4.5 mph - -   Partly Cloudy
1:00 PM 64.4 °F 48.2 °F 56% 30.01 in 6.2 mi SE 10.4 mph - N/A   Mostly Cloudy
1:30 PM 64.4 °F 48.2 °F 56% 30.01 in 6.2 mi SE 8.1 mph - N/A   Mostly Cloudy
2:00 PM 66 °F 41 °F 28% 30.04 in 6 mi ESE 6.7 mph - -   Mostly Cloudy
2:00 PM 62.6 °F 46.4 °F 55% 30.01 in 6.2 mi SSE 5.8 mph - N/A   Mostly Cloudy
2:30 PM 62.6 °F 48.2 °F 59% 30.01 in 6.2 mi SE 6.9 mph - N/A   Mostly Cloudy
3:00 PM 62 °F 38 °F 29% 30.05 in 6 mi SE 6.7 mph - -   Mostly Cloudy
3:00 PM 64.4 °F 48.2 °F 56% 30.01 in 6.2 mi SE 6.9 mph - N/A   Mostly Cloudy
3:30 PM 64.4 °F 48.2 °F 56% 30.01 in 6.2 mi SSE 5.8 mph - N/A   Mostly Cloudy
4:00 PM 62.6 °F 50.0 °F 63% 30.01 in 6.2 mi SSE 6.9 mph - N/A   Mostly Cloudy
4:30 PM 64.4 °F 48.2 °F 56% 30.01 in 6.2 mi South 8.1 mph - N/A   Partly Cloudy
5:00 PM 64 °F 40 °F 30% 30.04 in 6 mi SSE 8.9 mph - -   Scattered Clouds
5:00 PM 64.4 °F 48.2 °F 56% 30.01 in 6.2 mi South 6.9 mph - N/A   Partly Cloudy
5:30 PM 64.4 °F 46.4 °F 52% 30.01 in 6.2 mi South 5.8 mph - N/A   Partly Cloudy
6:00 PM 65 °F 39 °F 27% 30.04 in 6 mi SSE 4.5 mph - -   Scattered Clouds
6:00 PM 64.4 °F 46.4 °F 52% 30.01 in 6.2 mi SSE 4.6 mph - N/A   Partly Cloudy
6:30 PM 64.4 °F 46.4 °F 52% 30.01 in 6.2 mi SSE 5.8 mph - N/A   Partly Cloudy
7:00 PM 64.4 °F 46.4 °F 52% 30.01 in 6.2 mi SE 6.9 mph - N/A   Partly Cloudy
7:30 PM 62.6 °F 46.4 °F 55% 30.01 in - SSE 5.8 mph - N/A   Clear
8:00 PM 61 °F 37 °F 29% 30.05 in 6 mi ESE 4.5 mph - -   Scattered Clouds
8:00 PM 60.8 °F 46.4 °F 59% 30.04 in - SE 3.5 mph - N/A   Clear
8:30 PM 60.8 °F 48.2 °F 63% 30.04 in - SSE 4.6 mph - N/A   Clear
9:00 PM 57 °F 38 °F 37% 30.07 in 6 mi SE 4.5 mph - -   Scattered Clouds
9:00 PM 59.0 °F 48.2 °F 67% 30.06 in - South 3.5 mph - N/A   Clear
9:30 PM 59.0 °F 50.0 °F 72% 30.06 in - Calm Calm - N/A   Clear
10:00 PM 49 °F 43 °F 72% 30.11 in 6 mi NW 2.2 mph - -   Scattered Clouds
10:00 PM 57.2 °F 50.0 °F 77% 30.09 in - Calm Calm - N/A   Clear
10:30 PM 51.8 °F 48.2 °F 88% 30.09 in - ESE 3.5 mph - N/A   Clear
11:00 PM 44 °F 43 °F 93% 30.13 in 6 mi East 2.2 mph - -   Scattered Clouds
11:00 PM 51.8 °F 50.0 °F 94% 30.09 in - East 3.5 mph - N/A   Clear
11:30 PM 53.6 °F 46.4 °F 77% 30.12 in - East 12.7 mph - N/A   Clear